Miscellaneous Local Product
Issued by NWS North Platte, NE

Home | Current Version | Previous Version | Text Only | Print | Product List | Glossary On
Versions: 1 2 3 4 5 6 7 8 9 10 11 12 13 14 15 16 17 18 19 20 21 22 23 24 25 26 27 28 29 30 31 32 33 34 35 36 37 38 39 40 41 42 43 44 45 46 47 48 49 50
000
AXUS43 KLBF 010010
MISLBF


WESTERN AND NORTH CENTRAL NEBRASKA HOURLY WEATHER ROUNDUP
NATIONAL WEATHER SERVICE NORTH PLATTE NE
700 PM CDT TUE MAY 31 2016

NOTE: "FAIR" INDICATES FEW OR NO CLOUDS BELOW 12,000 FEET WITH NO
SIGNIFICANT WEATHER AND/OR OBSTRUCTIONS TO VISIBILITY.

NOTE: STATIONS NOT REPORTING VARIABLES SUCH AS SKY/WEATHER OR
PRESSURE ARE PROVIDED BY RAWS AND APRS NETWORKS AND ARE NOT UNDER
NATIONAL WEATHER SERVICE QUALITY CONTROL.

...OBSERVATIONS IN AND NEAR THE EASTERN PANHANDLE OF NEBRASKA...

CITY           SKY/WX    TMP DP  RH WIND       PRES   REMARKS
PINE RIDGE     MOSUNNY   66  38  35 NW18G30   30.01R
CHADRON        SUNNY     67  37  33 NW22G30   30.04R
ALLIANCE       MOSUNNY   67  36  31 N25G32    30.02R
SIDNEY         MOSUNNY   65  43  44 W6        30.06S
BIG SPRINGS      N/A     70  49  46 W6          N/A
$$

...OBSERVATIONS IN NORTHERN NEBRASKA AND FAR SOUTHERN SOUTH DAKOTA...

CITY           SKY/WX    TMP DP  RH WIND       PRES   REMARKS
WINNER         FAIR      68  44  42 NW28G38   29.92R
VALENTINE      SUNNY     68  42  38 NW22G31   29.94R
THEDFORD       PTSUNNY   71  42  35 NW8       29.97R
AINSWORTH      MOSUNNY   72  37  27 NW17G26   29.93R
O`NEILL        MOSUNNY   74  37  25 W13G25    29.90S
ORD            SUNNY     71  40  32 W7        29.93S
BROKEN BOW     MOSUNNY   71  43  36 W8G17     29.96R
BUTTE            N/A     70  47  43 NW15        N/A
CHAMBERS         N/A     75  46  35 W7          N/A
EWING            N/A     74  47  38 SW8         N/A
$$

...OBSERVATIONS IN SOUTHWEST NEBRASKA AND FAR NORTHEAST COLORADO...

CITY           SKY/WX    TMP DP  RH WIND       PRES   REMARKS
WRAY           FAIR      70  46  43 NE7       30.04
IMPERIAL       SUNNY     69  46  43 W13G21    30.03R
OGALLALA       SUNNY     69  44  41 W7        30.02R
NORTH PLATTE   SUNNY     69  46  43 W12       29.99S
MCCOOK         SUNNY     71  46  40 CALM      30.00S
LEXINGTON      SUNNY     71  49  46 W7        29.98S
PAXTON           N/A     70  47  43 W8          N/A
STAPLETON        N/A     72  46  39 CALM        N/A
GOTHENBURG       N/A     71  43  37 W7          N/A
CALLAWAY         N/A     70  50  48 W16         N/A
$$

...OBSERVATIONS IN CENTRAL LINCOLN COUNTY AREA...

CITY           SKY/WX    TMP DP  RH WIND       PRES   REMARKS
N.P. AIRPORT   SUNNY     69  46  43 W12       29.99S
N.P. DOWNTOWN    N/A     72  46  38 CALM        N/A
N.P. HILLCREST   N/A     70  45  40 W10         N/A
$$

...SOME OBSERVATIONS FROM AROUND THE REGION...

CITY           SKY/WX    TMP DP  RH WIND       PRES   REMARKS
DENVER         CLOUDY    61  48  62 E12       30.09R THUNDER
LARAMIE        CLOUDY    58  29  33 N13       30.15R
CHEYENNE       CLOUDY    59  43  55 NE7       30.12R
SCOTTSBLUFF    SUNNY     71  28  20 NW18G24   30.03R
RAPID CITY     PTSUNNY   59  41  51 NW26G36   30.03R
BISMARCK       LGT RAIN  57  54  89 NW16G30   29.69R
PIERRE         CLOUDY    63  46  54 W32G43    29.88R
SIOUX FALLS    MOSUNNY   72  49  44 S10       29.85F
OMAHA          CLOUDY    77  53  43 W6        29.91R
GRAND ISLAND   MOSUNNY   74  43  32 N3        29.96R
KANSAS CITY    CLOUDY    74  65  73 W5        29.90R
WICHITA        MOSUNNY   80  59  48 N9        29.91R
OKLAHOMA CITY  LGT RAIN  68  64  87 CALM      29.90R
DALLAS         TSTM      70  67  90 N10       29.88F FOG
AMARILLO       CLOUDY    74  55  51 NE17G25   29.95R
DODGE CITY     SUNNY     72  58  61 NE12      29.97R
HAYS           MOSUNNY   72  55  56 E8        29.96S
GOODLAND       PTSUNNY   67  48  50 NE10      30.03R
$$




USA.gov is the U.S. government's official web portal to all federal, state and local government web resources and services.